When you browse on this site, cookies collect data to enhance your experience and personalize the content and advertising you see.
Visit our Privacy Policy to learn more. By continuing to use the site, you agree to this use of cookies and data.
  • In Österreich
  • Länderverzeichnis
  • Für 7 Tage
  • Wassertemperatur
  • Satellitenkarten
  • Wetterkarte
  • News
  • Widgets
  • user-avatar
    Anmelden

    Stündliche Wetter Mulhule

    Heute, 20 November, Dienstag

    Zeit Temperatur Niederschläge Wind Luftdruck Luftfeuchtigkeit
    00:00 +29°C° 0 mm 6 m/S 760 mmHg 55%
    01:00 +29°C° 0 mm 6 m/S 760 mmHg 56%
    02:00 +28°C° 0 mm 6 m/S 760 mmHg 58%
    03:00 +28°C° 0 mm 6 m/S 760 mmHg 59%
    04:00 +28°C° 0 mm 6 m/S 760 mmHg 60%
    05:00 +28°C° 0 mm 6 m/S 760 mmHg 60%
    06:00 +27°C° 0 mm 6 m/S 760 mmHg 61%
    07:00 +29°C° 0 mm 6 m/S 761 mmHg 55%
    08:00 +30°C° 0 mm 7 m/S 761 mmHg 48%
    09:00 +33°C° 0 mm 7 m/S 761 mmHg 41%
    10:00 +34°C° 0 mm 7 m/S 761 mmHg 38%
    11:00 +35°C° 0 mm 8 m/S 761 mmHg 34%
    12:00 +37°C° 0 mm 8 m/S 760 mmHg 31%
    13:00 +37°C° 0 mm 8 m/S 760 mmHg 31%
    14:00 +37°C° 0 mm 8 m/S 759 mmHg 31%
    15:00 +37°C° 0 mm 8 m/S 759 mmHg 32%
    16:00 +35°C° 0 mm 7 m/S 759 mmHg 35%
    17:00 +34°C° 0 mm 7 m/S 759 mmHg 38%
    18:00 +33°C° 0 mm 6 m/S 759 mmHg 41%
    19:00 +33°C° 0 mm 6 m/S 760 mmHg 43%
    20:00 +32°C° 0 mm 6 m/S 760 mmHg 44%
    21:00 +32°C° 0 mm 5 m/S 761 mmHg 46%
    22:00 +30°C° 0 mm 5 m/S 761 mmHg 47%
    23:00 +30°C° 0 mm 5 m/S 761 mmHg 48%

    Morgen, 21 November, Mittwoch

    Zeit Temperatur Niederschläge Wind Luftdruck Luftfeuchtigkeit
    00:00 +30°C° 0 mm 5 m/S 761 mmHg 49%
    01:00 +29°C° 0 mm 5 m/S 760 mmHg 50%
    02:00 +29°C° 0 mm 5 m/S 760 mmHg 51%
    03:00 +29°C° 0 mm 5 m/S 760 mmHg 53%
    04:00 +28°C° 0 mm 5 m/S 760 mmHg 52%
    05:00 +28°C° 0 mm 5 m/S 760 mmHg 52%
    06:00 +28°C° 0 mm 5 m/S 761 mmHg 52%
    07:00 +29°C° 0 mm 5 m/S 761 mmHg 47%
    08:00 +32°C° 0 mm 6 m/S 761 mmHg 41%
    09:00 +34°C° 0 mm 6 m/S 761 mmHg 36%
    10:00 +35°C° 0 mm 7 m/S 761 mmHg 34%
    11:00 +36°C° 0 mm 7 m/S 760 mmHg 31%
    12:00 +38°C° 0 mm 8 m/S 760 mmHg 29%
    13:00 +37°C° 0 mm 8 m/S 760 mmHg 29%
    14:00 +36°C° 0 mm 7 m/S 759 mmHg 29%
    15:00 +36°C° 0 mm 7 m/S 758 mmHg 30%
    16:00 +35°C° 0 mm 7 m/S 759 mmHg 32%
    17:00 +34°C° 0 mm 7 m/S 759 mmHg 34%
    18:00 +33°C° 0 mm 6 m/S 759 mmHg 37%
    19:00 +33°C° 0 mm 6 m/S 760 mmHg 39%
    20:00 +32°C° 0 mm 6 m/S 760 mmHg 40%
    21:00 +32°C° 0 mm 6 m/S 761 mmHg 42%
    22:00 +30°C° 0 mm 6 m/S 760 mmHg 44%
    23:00 +30°C° 0 mm 6 m/S 760 mmHg 46%

    übermorgen, 22 November, Donnerstag

    Zeit Temperatur Niederschläge Wind Luftdruck Luftfeuchtigkeit
    00:00 +30°C° 0 mm 6 m/S 760 mmHg 48%
    01:00 +29°C° 0 mm 6 m/S 760 mmHg 50%
    02:00 +29°C° 0 mm 6 m/S 760 mmHg 52%
    03:00 +29°C° 0 mm 6 m/S 759 mmHg 54%
    04:00 +28°C° 0 mm 6 m/S 759 mmHg 56%
    05:00 +28°C° 0 mm 6 m/S 760 mmHg 57%
    06:00 +28°C° 0 mm 6 m/S 760 mmHg 58%
    07:00 +29°C° 0 mm 7 m/S 760 mmHg 53%
    08:00 +31°C° 0 mm 8 m/S 761 mmHg 48%
    09:00 +33°C° 0 mm 8 m/S 761 mmHg 43%
    10:00 +34°C° 0 mm 8 m/S 761 mmHg 40%
    11:00 +35°C° 0 mm 9 m/S 760 mmHg 37%
    12:00 +37°C° 0 mm 9 m/S 760 mmHg 34%
    13:00 +37°C° 0 mm 9 m/S 759 mmHg 35%
    14:00 +35°C° 0 mm 9 m/S 758 mmHg 35%
    15:00 +35°C° 0 mm 9 m/S 758 mmHg 35%
    16:00 +34°C° 0 mm 8 m/S 758 mmHg 39%
    17:00 +33°C° 0 mm 8 m/S 758 mmHg 43%
    18:00 +32°C° 0 mm 8 m/S 759 mmHg 47%
    19:00 +32°C° 0 mm 8 m/S 759 mmHg 50%
    20:00 +31°C° 0 mm 8 m/S 760 mmHg 53%
    21:00 +31°C° 0 mm 8 m/S 761 mmHg 57%
    22:00 +29°C° 0 mm 8 m/S 760 mmHg 60%
    23:00 +29°C° 0 mm 8 m/S 760 mmHg 63%

    23 November, Freitag

    Zeit Temperatur Niederschläge Wind Luftdruck Luftfeuchtigkeit
    00:00 +29°C° 0 mm 8 m/S 760 mmHg 66%
    01:00 +28°C° 0 mm 8 m/S 760 mmHg 69%
    02:00 +28°C° 0 mm 8 m/S 759 mmHg 71%
    03:00 +28°C° 0 mm 8 m/S 759 mmHg 73%
    04:00 +28°C° 0 mm 8 m/S 759 mmHg 73%
    05:00 +28°C° 0 mm 9 m/S 760 mmHg 74%
    06:00 +27°C° 0 mm 9 m/S 760 mmHg 74%
    07:00 +29°C° 0 mm 9 m/S 760 mmHg 67%
    08:00 +31°C° 0 mm 10 m/S 761 mmHg 61%
    09:00 +32°C° 0 mm 10 m/S 761 mmHg 54%
    10:00 +33°C° 0 mm 10 m/S 761 mmHg 50%
    11:00 +34°C° 0 mm 10 m/S 760 mmHg 46%
    12:00 +36°C° 0 mm 10 m/S 760 mmHg 42%
    13:00 +36°C° 0 mm 10 m/S 759 mmHg 43%
    14:00 +36°C° 0 mm 10 m/S 758 mmHg 43%
    15:00 +36°C° 0 mm 10 m/S 758 mmHg 44%
    16:00 +34°C° 0 mm 10 m/S 758 mmHg 49%
    17:00 +33°C° 0 mm 9 m/S 758 mmHg 55%
    18:00 +31°C° 0 mm 9 m/S 758 mmHg 61%
    19:00 +31°C° 0 mm 9 m/S 759 mmHg 64%
    20:00 +31°C° 0 mm 9 m/S 760 mmHg 66%
    21:00 +29°C° 0 mm 9 m/S 760 mmHg 69%
    22:00 +29°C° 0 mm 9 m/S 760 mmHg 71%
    23:00 +29°C° 0 mm 9 m/S 760 mmHg 73%

    24 November, Samstag

    Zeit Temperatur Niederschläge Wind Luftdruck Luftfeuchtigkeit
    00:00 +29°C° 0 mm 9 m/S 760 mmHg 75%
    01:00 +29°C° 0 mm 9 m/S 759 mmHg 75%
    02:00 +28°C° 0 mm 9 m/S 759 mmHg 76%
    03:00 +28°C° 0 mm 9 m/S 759 mmHg 76%
    04:00 +28°C° 0 mm 9 m/S 759 mmHg 77%
    05:00 +28°C° 0 mm 9 m/S 759 mmHg 77%
    06:00 +28°C° 0 mm 8 m/S 760 mmHg 78%
    07:00 +29°C° 0 mm 9 m/S 760 mmHg 72%
    08:00 +31°C° 0 mm 9 m/S 761 mmHg 67%
    09:00 +32°C° 0 mm 9 m/S 761 mmHg 61%
    10:00 +33°C° 0 mm 9 m/S 761 mmHg 57%
    11:00 +34°C° 0 mm 10 m/S 760 mmHg 54%
    12:00 +36°C° 0 mm 10 m/S 760 mmHg 50%
    13:00 +35°C° 0 mm 9 m/S 759 mmHg 50%
    14:00 +35°C° 0 mm 9 m/S 758 mmHg 51%
    15:00 +35°C° 0 mm 9 m/S 758 mmHg 52%
    16:00 +34°C° 0 mm 9 m/S 758 mmHg 57%
    17:00 +33°C° 0 mm 9 m/S 758 mmHg 63%
    18:00 +32°C° 0 mm 8 m/S 758 mmHg 69%
    19:00 +32°C° 0 mm 8 m/S 759 mmHg 71%
    20:00 +31°C° 0 mm 8 m/S 760 mmHg 73%
    21:00 +31°C° 0 mm 8 m/S 760 mmHg 76%
    22:00 +31°C° 0 mm 8 m/S 760 mmHg 77%
    23:00 +29°C° 0 mm 8 m/S 760 mmHg 77%

    25 November, Sonntag

    Zeit Temperatur Niederschläge Wind Luftdruck Luftfeuchtigkeit
    00:00 +29°C° 0 mm 8 m/S 760 mmHg 78%
    01:00 +29°C° 0 mm 8 m/S 759 mmHg 79%
    02:00 +29°C° 0 mm 8 m/S 759 mmHg 79%
    03:00 +29°C° 0 mm 8 m/S 759 mmHg 79%
    04:00 +29°C° 0 mm 8 m/S 759 mmHg 80%
    05:00 +28°C° 0 mm 8 m/S 760 mmHg 80%
    06:00 +28°C° 0 mm 8 m/S 760 mmHg 80%
    07:00 +29°C° 0 mm 8 m/S 760 mmHg 74%
    08:00 +32°C° 0 mm 9 m/S 761 mmHg 68%
    09:00 +33°C° 0 mm 9 m/S 761 mmHg 62%
    10:00 +34°C° 0 mm 9 m/S 761 mmHg 59%
    11:00 +34°C° 0 mm 9 m/S 760 mmHg 57%
    12:00 +35°C° 0 mm 9 m/S 759 mmHg 54%
    13:00 +35°C° 0 mm 9 m/S 759 mmHg 54%
    14:00 +35°C° 0 mm 9 m/S 758 mmHg 55%
    15:00 +35°C° 0 mm 9 m/S 758 mmHg 56%
    16:00 +34°C° 0 mm 8 m/S 758 mmHg 60%
    17:00 +33°C° 0 mm 8 m/S 758 mmHg 64%
    18:00 +32°C° 0 mm 8 m/S 759 mmHg 69%
    19:00 +32°C° 0 mm 7 m/S 759 mmHg 71%
    20:00 +30°C° 0 mm 7 m/S 759 mmHg 73%
    21:00 +30°C° 0 mm 7 m/S 760 mmHg 75%
    22:00 +30°C° 0 mm 7 m/S 760 mmHg 76%
    23:00 +30°C° 0 mm 7 m/S 759 mmHg 78%
    Mehr zeigen